KLM342 EGPH-EGKK

Flight info

Callsign KLM342
Flight time N/A
Altitude 35000
Route GOSAM P600 FENIK L612 NAVSO DCT ADZOP DCT EGTOC DCT KEPAD L151 DISIT
Aircraft B738/M-SDE2E3FGHIR/S

Departure

Time 2026-04-23 12:54
Airport Edinburgh Airport (EGPH)

Arrival

Time N/A
Airport London Gatwick Airport (EGKK)
Time Latitude Longitude Altitude Speed Heading
2026-04-23 12:39 55.94666 -3.36631 147 ft 0 kts 95°
2026-04-23 12:45 55.94667 -3.36646 147 ft 2 kts 95°
2026-04-23 12:45 55.94668 -3.36677 147 ft 3 kts 95°
2026-04-23 12:45 55.94667 -3.36712 147 ft 3 kts 73°
2026-04-23 12:46 55.94657 -3.36744 147 ft 3 kts 49°
2026-04-23 12:46 55.94641 -3.36767 147 ft 3 kts 26°
2026-04-23 12:46 55.94636 -3.36771 147 ft 0 kts 21°
2026-04-23 12:46 55.94639 -3.36768 147 ft 1 kts 21°
2026-04-23 12:47 55.94648 -3.36762 147 ft 0 kts 21°
2026-04-23 12:48 55.94684 -3.36749 147 ft 10 kts
2026-04-23 12:48 55.94770 -3.36745 147 ft 12 kts 358°
2026-04-23 12:48 55.94859 -3.36763 147 ft 15 kts 338°
2026-04-23 12:48 55.94925 -3.36858 147 ft 12 kts 274°
2026-04-23 12:49 55.94881 -3.37039 147 ft 20 kts 238°
2026-04-23 12:49 55.94796 -3.37286 147 ft 27 kts 240°
2026-04-23 12:49 55.94689 -3.37607 148 ft 27 kts 238°
2026-04-23 12:49 55.94594 -3.37883 147 ft 25 kts 239°
2026-04-23 12:50 55.94510 -3.38127 147 ft 16 kts 239°
2026-04-23 12:50 55.94455 -3.38288 147 ft 15 kts 239°
2026-04-23 12:50 55.94404 -3.38440 147 ft 14 kts 239°
2026-04-23 12:50 55.94357 -3.38582 147 ft 13 kts 239°
2026-04-23 12:51 55.94322 -3.38687 147 ft 8 kts 239°
2026-04-23 12:51 55.94295 -3.38767 147 ft 7 kts 239°
2026-04-23 12:51 55.94281 -3.38808 147 ft 3 kts 239°
2026-04-23 12:51 55.94271 -3.38839 147 ft 2 kts 239°
2026-04-23 12:52 55.94270 -3.38847 147 ft 0 kts 257°
2026-04-23 12:52 55.94271 -3.38855 147 ft 0 kts 301°
2026-04-23 12:52 55.94297 -3.38887 147 ft 6 kts 327°
2026-04-23 12:52 55.94334 -3.38926 147 ft 11 kts 331°
2026-04-23 12:53 55.94400 -3.38962 147 ft 6 kts 19°
2026-04-23 12:53 55.94415 -3.38946 147 ft 6 kts 33°
2026-04-23 12:53 55.94480 -3.38788 147 ft 39 kts 58°
2026-04-23 12:53 55.94751 -3.37976 148 ft 111 kts 59°
2026-04-23 12:54 55.95284 -3.36493 216 ft 170 kts 59°
2026-04-23 12:54 55.96018 -3.34386 352 ft 240 kts 58°
2026-04-23 12:54 55.96965 -3.31540 1008 ft 284 kts 60°
2026-04-23 12:54 55.98179 -3.28550 2184 ft 314 kts 45°
2026-04-23 12:55 56.00167 -3.26491 2949 ft 352 kts 20°
2026-04-23 12:55 56.01627 -3.26048 3410 ft 329 kts